User: anonymous   Login
Location: *
(44.1392°N, 4.8079°E)
Time: 03:01:49
(UTC+00:00)
Language:

Cosmos 1271 Rocket - Orbit

View from above orbital plane
View from above orbital plane
View from above satellite
View from above satellite

Ground track
Ground track

The orbit data is extracted from the following two-line orbital elements,

1 12465U 81046B   21270.60359610  .00001457  00000-0  75323-4 0  9990
2 12465  81.2451  26.8200 0034643 131.7029 228.7173 15.15095347191003
Epoch (UTC): 27 September 2021 14:29:10
Eccentricity: 0.0034643
inclination: 81.2451°
perigee height: 497 km
apogee height: 544 km
right ascension of ascending node: 26.8200°
argument of perigee: 131.7029°
revolutions per day: 15.15095347
mean anomaly at epoch: 228.7173°
orbit number at epoch: 19100

The dashed part of the orbit path shows where the satellite is in the earth's shadow,  

DLR